EW2244 Weather Reports


Display with metric or nautical units.
time (UTC)temp
F
wind
direction
speed
MPH
gust
MPH
rain 1hr
in
rain 24hr
in
rain mn
in
humidity
%
barometer
mb
20260504100124 65 29 2.0 5.0 0.00 0.00 0.00 53 1018.7
20260504081139 62 45 0.0 1.0 0.00 0.00 0.00 66 1018.6
20260504080203 62 45 0.0 1.0 0.00 0.00 0.00 66 1018.6
20260504070132 61 11 0.0 1.0 0.00 0.00 0.00 67 1018.4
20260504060131 58 144 0.0 2.0 0.00 0.00 0.00 74 1017.7
20260504050135 58 92 0.0 5.0 0.00 0.00 0.00 70 1017.2
20260504045142 58 74 0.0 3.0 0.00 0.00 0.00 70 1017.0
20260504044127 57 5 1.0 4.0 0.00 0.00 0.00 70 1017.1
20260504043138 57 190 0.0 4.0 0.00 0.00 0.00 72 1017.1
20260504042143 56 188 0.0 1.0 0.00 0.00 0.00 73 1017.0
20260504041130 56 188 0.0 2.0 0.00 0.00 0.00 72 1017.1
20260504040137 56 188 0.0 2.0 0.00 0.00 0.00 73 1017.1
20260504035129 56 188 0.0 1.0 0.00 0.00 0.00 74 1017.1
20260504034134 55 188 0.0 1.0 0.00 0.00 0.00 75 1017.1
20260504033201 56 188 0.0 3.0 0.00 0.00 0.00 76 1017.1
20260504032143 56 188 0.0 1.0 0.00 0.00 0.00 74 1017.0
20260504031133 56 188 0.0 1.0 0.00 0.00 0.00 76 1017.1
20260504030136 56 188 0.0 2.0 0.00 0.00 0.00 76 1017.1
20260504025142 56 188 0.0 2.0 0.00 0.00 0.00 76 1017.2
20260504024129 56 188 1.0 4.0 0.00 0.00 0.00 74 1017.3
20260504023139 56 188 1.0 2.0 0.00 0.00 0.00 75 1017.3
20260504022143 57 188 0.0 0.0 0.00 0.00 0.00 72 1017.3
20260504021129 57 188 0.0 2.0 0.00 0.00 0.00 73 1017.3
20260504020136 57 188 0.0 2.0 0.00 0.00 0.00 72 1017.3
20260504015147 57 188 0.0 0.0 0.00 0.00 0.00 72 1017.3
20260504014132 58 188 0.0 1.0 0.00 0.00 0.00 72 1017.4
20260504013200 58 188 0.0 1.0 0.00 0.00 0.00 71 1017.4
20260504012125 58 188 0.0 1.0 0.00 0.00 0.00 68 1017.3
20260504011157 58 188 0.0 2.0 0.00 0.00 0.00 70 1017.3
20260504010140 58 188 0.0 1.0 0.00 0.00 0.00 69 1017.4
20260504005127 58 188 0.0 2.0 0.00 0.00 0.00 70 1017.4
20260504004132 57 188 0.0 2.0 0.00 0.00 0.00 72 1017.4
20260504003143 58 188 0.0 1.0 0.00 0.00 0.00 70 1017.6
20260504002150 58 188 0.0 1.0 0.00 0.00 0.00 70 1017.5
20260504001136 58 188 0.0 0.0 0.00 0.00 0.00 71 1017.7
20260504000204 58 188 0.0 2.0 0.00 0.00 0.00 70 1017.9
20260503235127 59 188 0.0 2.0 0.00 0.00 0.00 69 1017.9
20260503234137 59 188 0.0 0.0 0.00 0.00 0.00 69 1017.9
20260503233145 59 188 0.0 1.0 0.00 0.00 0.00 70 1018.0
20260503232130 59 188 0.0 1.0 0.00 0.00 0.00 69 1018.1
20260503231135 59 188 0.0 1.0 0.00 0.00 0.00 70 1018.2
20260503230125 59 188 0.0 1.0 0.00 0.00 0.00 72 1018.2
20260503225132 59 188 0.0 1.0 0.00 0.00 0.00 70 1018.2
20260503224116 59 188 0.0 0.0 0.00 0.00 0.00 70 1018.2
20260503223123 59 188 0.0 0.0 0.00 0.00 0.00 70 1018.2
20260503222132 59 188 0.0 1.0 0.00 0.00 0.00 70 1018.2
20260503221139 60 188 0.0 0.0 0.00 0.00 0.00 69 1018.1
20260503220123 59 188 0.0 0.0 0.00 0.00 0.00 68 1018.1
20260503215130 59 188 0.0 2.0 0.00 0.00 0.00 69 1018.0
20260503214119 60 188 0.0 2.0 0.00 0.00 0.00 69 1018.1
20260503213120 60 188 0.0 1.0 0.00 0.00 0.00 68 1018.0
20260503212123 60 188 0.0 1.0 0.00 0.00 0.00 68 1018.0
20260503211124 60 188 0.0 1.0 0.00 0.00 0.00 68 1017.9
20260503210126 60 188 0.0 0.0 0.00 0.00 0.00 66 1017.9
20260503205131 61 188 0.0 0.0 0.00 0.00 0.00 66 1017.9
20260503204134 61 188 0.0 2.0 0.00 0.00 0.00 65 1017.9
20260503203137 61 188 1.0 3.0 0.00 0.00 0.00 65 1017.9
20260503202122 61 188 0.0 2.0 0.00 0.00 0.00 64 1017.9
20260503201148 60 188 0.0 3.0 0.00 0.00 0.00 65 1017.9
20260503200130 61 188 1.0 3.0 0.00 0.00 0.00 65 1017.9
20260503195147 61 188 0.0 2.0 0.00 0.00 0.00 64 1017.8
20260503194132 61 188 0.0 1.0 0.00 0.00 0.00 62 1017.6
20260503193119 61 188 0.0 1.0 0.00 0.00 0.00 63 1017.5
20260503192143 62 188 0.0 2.0 0.00 0.00 0.00 63 1017.5
20260503191121 62 188 0.0 2.0 0.00 0.00 0.00 62 1017.4
20260503190123 63 188 1.0 2.0 0.00 0.00 0.00 62 1017.3
20260503185129 64 188 1.0 2.0 0.00 0.00 0.00 62 1017.2
20260503184130 65 188 0.0 2.0 0.00 0.00 0.00 60 1017.1
20260503183135 66 188 0.0 2.0 0.00 0.00 0.00 56 1017.0
20260503182118 66 188 0.0 2.0 0.00 0.00 0.00 54 1017.0
20260503181122 67 188 0.0 1.0 0.00 0.00 0.00 54 1017.1
20260503180123 67 188 0.0 2.0 0.00 0.00 0.00 53 1017.2
20260503175128 67 188 1.0 3.0 0.00 0.00 0.00 53 1017.1
20260503174153 68 188 1.0 2.0 0.00 0.00 0.00 52 1017.2
20260503173116 68 188 0.0 1.0 0.00 0.00 0.00 49 1017.2
20260503172146 69 188 0.0 1.0 0.00 0.00 0.00 49 1017.3
20260503171129 69 188 0.0 1.0 0.00 0.00 0.00 47 1017.3
20260503170116 69 188 0.0 2.0 0.00 0.00 0.00 46 1017.2
20260503160130 70 188 1.0 2.0 0.00 0.00 0.00 45 1017.4
20260503150117 71 199 1.0 3.0 0.00 0.00 0.00 45 1018.0
20260503140147 71 174 1.0 3.0 0.00 0.00 0.00 44 1018.4
20260503131115 71 86 0.0 5.0 0.00 0.00 0.00 46 1018.8
20260503130122 71 92 2.0 5.0 0.00 0.00 0.00 44 1018.9
20260503120115 73 102 1.0 5.0 0.00 0.00 0.00 40 1019.1
20260503110125 72 129 1.0 4.0 0.00 0.00 0.00 48 1019.0